sat.trackr.live / text

‹ back to catalog

ASTRA 2F

NORAD 38778 · 2012-051A

PAYLOAD ACTIVE UNKNOWN

§ Identity

Operator
Country
SES
Launch date
2012-09-28
Launch site
FRGUI
Launch vehicle
Mass (kg)
RCS (m²)
17.60

Purposes: comms

External: N2YO · Heavens-Above · Gunter

§ Orbital elements

Epoch: 2026-09-19T13:41:03.317856Z

Period
1,436.13 min
Inclination
0.0772°
Eccentricity
0.0003758
Mean motion
1.00269651 rev/d
Perigee alt
35,771.3 km
Apogee alt
35,803.0 km
Semi-major
42,165.3 km
B*
0.0000e+0
RAAN
258.9954°
Arg perigee
297.3675°
Mean anomaly
35.5889°
Rev number
4,208

§ Raw data

ASTRA 2F1 38778U 12051A   26262.57017729  .00000146  00000+0  00000+0 0  99972 38778   0.0772 258.9954 0003758 297.3675  35.5889  1.00269651 42087

JSON: /api/v1/satellites/38778 · /tle

For live sub-satellite position, see the globe view (requires WebGL).

§ Visibility from observer

Set your observer location to see the next 7 days of passes ≥ 10°. The values pass through the URL so the page stays shareable.

No JS? Fill the form by hand. The geolocation button needs JavaScript.